<?xml version='1.0' encoding='UTF-8'?>
<gpx xmlns="http://www.topografix.com/GPX/1/1" creator="www.balnam.be" version="1.1" xmlns:xsi="http://www.w3.org/2001/XMLSchema-instance" xsi:schemaLocation="http://www.topografix.com/GPX/1/1 http://www.topografix.com/GPX/1/1/gpx.xsd">
<trk>
<name>hfcep10</name>
<cmt>q</cmt>
<desc>Erpion Chemin n°10 </desc>
<link href="https://chemins.be/erpion/chemin/10"/><trkseg>
<trkpt lat="50.195468" lon="4.358127"><time>2026-05-02T18:43:16Z</time></trkpt>
<trkpt lat="50.196169" lon="4.356866"><time>2026-05-02T18:53:16Z</time></trkpt>
<trkpt lat="50.196708" lon="4.355101"><time>2026-05-02T19:03:16Z</time></trkpt>
<trkpt lat="50.197508" lon="4.353504"><time>2026-05-02T19:13:16Z</time></trkpt>
<trkpt lat="50.197490" lon="4.352496"><time>2026-05-02T19:23:16Z</time></trkpt>
</trkseg></trk>
<trk>
<name>hfcep10</name>
<cmt>v</cmt>
<desc>Erpion Chemin n°10 </desc>
<link href="https://chemins.be/erpion/chemin/10"/><trkseg>
<trkpt lat="50.197490" lon="4.352496"><time>2026-05-02T19:23:16Z</time></trkpt>
<trkpt lat="50.198668" lon="4.351277"><time>2026-05-02T19:33:16Z</time></trkpt>
<trkpt lat="50.199638" lon="4.350730"><time>2026-05-02T19:43:16Z</time></trkpt>
<trkpt lat="50.199719" lon="4.348335"><time>2026-05-02T19:53:16Z</time></trkpt>
<trkpt lat="50.200150" lon="4.347018"><time>2026-05-02T20:03:16Z</time></trkpt>
<trkpt lat="50.200645" lon="4.346584"><time>2026-05-02T20:13:16Z</time></trkpt>
<trkpt lat="50.200896" lon="4.345855"><time>2026-05-02T20:23:16Z</time></trkpt>
<trkpt lat="50.201013" lon="4.344371"><time>2026-05-02T20:33:16Z</time></trkpt>
<trkpt lat="50.200122" lon="4.341836"><time>2026-05-02T20:43:16Z</time></trkpt>
<trkpt lat="50.199843" lon="4.340197"><time>2026-05-02T20:53:16Z</time></trkpt>
</trkseg>
</trk>
<trk>
<name>hfcep12</name>
<cmt>v</cmt>
<desc>Erpion Chemin n°12 </desc>
<link href="https://chemins.be/erpion/chemin/12"/><trkseg>
<trkpt lat="50.210491" lon="4.338574"><time>2026-05-02T18:43:16Z</time></trkpt>
<trkpt lat="50.211960" lon="4.338360"><time>2026-05-02T18:53:16Z</time></trkpt>
<trkpt lat="50.216011" lon="4.339733"><time>2026-05-02T19:03:16Z</time></trkpt>
<trkpt lat="50.216491" lon="4.342287"><time>2026-05-02T19:13:16Z</time></trkpt>
</trkseg>
</trk>
<trk>
<name>hfcep14</name>
<cmt>v</cmt>
<desc>Erpion Chemin n°14 </desc>
<link href="https://chemins.be/erpion/chemin/14"/><trkseg>
<trkpt lat="50.195396" lon="4.358155"><time>2026-05-02T18:43:16Z</time></trkpt>
<trkpt lat="50.192624" lon="4.357589"><time>2026-05-02T18:53:16Z</time></trkpt>
<trkpt lat="50.192533" lon="4.357525"><time>2026-05-02T19:03:16Z</time></trkpt>
<trkpt lat="50.191871" lon="4.357805"><time>2026-05-02T19:13:16Z</time></trkpt>
<trkpt lat="50.191467" lon="4.358590"><time>2026-05-02T19:23:16Z</time></trkpt>
<trkpt lat="50.190397" lon="4.359402"><time>2026-05-02T19:33:16Z</time></trkpt>
<trkpt lat="50.190334" lon="4.359332"><time>2026-05-02T19:43:16Z</time></trkpt>
<trkpt lat="50.189300" lon="4.360102"><time>2026-05-02T19:53:16Z</time></trkpt>
<trkpt lat="50.189121" lon="4.360943"><time>2026-05-02T20:03:16Z</time></trkpt>
</trkseg>
</trk>
<trk>
<name>hfcep15</name>
<cmt>d</cmt>
<desc>Erpion Chemin n°15 </desc>
<link href="https://chemins.be/erpion/chemin/15"/><trkseg>
<trkpt lat="50.197495" lon="4.352467"><time>2026-05-02T18:43:16Z</time></trkpt>
<trkpt lat="50.196820" lon="4.351251"><time>2026-05-02T18:53:16Z</time></trkpt>
</trkseg>
</trk>
<trk>
<name>hfcep16</name>
<cmt>r</cmt>
<desc>Erpion Chemin n°16 Rue du Four à Verre</desc>
<link href="https://chemins.be/erpion/chemin/16"/><trkseg>
<trkpt lat="50.196185" lon="4.342860"><time>2026-05-02T18:43:16Z</time></trkpt>
<trkpt lat="50.196059" lon="4.342132"><time>2026-05-02T18:53:16Z</time></trkpt>
</trkseg>
</trk>
<trk>
<name>hfcep17</name>
<cmt>r</cmt>
<desc>Erpion Chemin n°17 </desc>
<link href="https://chemins.be/erpion/chemin/17"/><trkseg>
<trkpt lat="50.210394" lon="4.338039"><time>2026-05-02T18:43:16Z</time></trkpt>
<trkpt lat="50.210397" lon="4.335521"><time>2026-05-02T18:53:16Z</time></trkpt>
<trkpt lat="50.209949" lon="4.334033"><time>2026-05-02T19:03:16Z</time></trkpt>
<trkpt lat="50.209747" lon="4.332710"><time>2026-05-02T19:13:16Z</time></trkpt>
</trkseg>
</trk>
<trk>
<name>hfcep18</name>
<cmt>q</cmt>
<desc>Erpion Chemin n°18 </desc>
<link href="https://chemins.be/erpion/chemin/18"/><trkseg>
<trkpt lat="50.211972" lon="4.338410"><time>2026-05-02T18:43:16Z</time></trkpt>
<trkpt lat="50.210960" lon="4.335814"><time>2026-05-02T18:53:16Z</time></trkpt>
<trkpt lat="50.210388" lon="4.335585"><time>2026-05-02T19:03:16Z</time></trkpt>
</trkseg>
</trk>
<trk>
<name>hfcep19</name>
<cmt>q</cmt>
<desc>Erpion Chemin n°19 </desc>
<link href="https://chemins.be/erpion/chemin/19"/><trkseg>
<trkpt lat="50.207458" lon="4.331487"><time>2026-05-02T18:43:16Z</time></trkpt>
<trkpt lat="50.204799" lon="4.330707"><time>2026-05-02T18:53:16Z</time></trkpt>
</trkseg>
</trk>
<trk>
<name>hfcep2</name>
<cmt>s</cmt>
<desc>Erpion Chemin n°2 Rue du Général Galet / Rue des Carrières</desc>
<link href="https://chemins.be/erpion/chemin/2"/><trkseg>
<trkpt lat="50.214186" lon="4.357030"><time>2026-05-02T18:43:16Z</time></trkpt>
<trkpt lat="50.214708" lon="4.358529"><time>2026-05-02T18:53:16Z</time></trkpt>
<trkpt lat="50.214995" lon="4.361289"><time>2026-05-02T19:03:16Z</time></trkpt>
</trkseg></trk>
<trk>
<name>hfcep2</name>
<cmt>r</cmt>
<desc>Erpion Chemin n°2 Rue du Général Galet / Rue des Carrières</desc>
<link href="https://chemins.be/erpion/chemin/2"/><trkseg>
<trkpt lat="50.214995" lon="4.361289"><time>2026-05-02T19:03:16Z</time></trkpt>
<trkpt lat="50.216308" lon="4.363531"><time>2026-05-02T19:13:16Z</time></trkpt>
</trkseg></trk>
<trk>
<name>hfcep2</name>
<cmt>v</cmt>
<desc>Erpion Chemin n°2 Rue du Général Galet / Rue des Carrières</desc>
<link href="https://chemins.be/erpion/chemin/2"/><trkseg>
<trkpt lat="50.216308" lon="4.363531"><time>2026-05-02T19:13:16Z</time></trkpt>
<trkpt lat="50.216443" lon="4.364427"><time>2026-05-02T19:23:16Z</time></trkpt>
<trkpt lat="50.216623" lon="4.365030"><time>2026-05-02T19:33:16Z</time></trkpt>
</trkseg></trk>
<trk>
<name>hfcep2</name>
<cmt>q</cmt>
<desc>Erpion Chemin n°2 Rue du Général Galet / Rue des Carrières</desc>
<link href="https://chemins.be/erpion/chemin/2"/><trkseg>
<trkpt lat="50.216623" lon="4.365030"><time>2026-05-02T19:33:16Z</time></trkpt>
<trkpt lat="50.217117" lon="4.365268"><time>2026-05-02T19:43:16Z</time></trkpt>
</trkseg>
</trk>
<trk>
<name>hfcep21</name>
<cmt>v</cmt>
<desc>Erpion Chemin n°21 </desc>
<link href="https://chemins.be/erpion/chemin/21"/><trkseg>
<trkpt lat="50.211012" lon="4.353948"><time>2026-05-02T18:43:16Z</time></trkpt>
<trkpt lat="50.210814" lon="4.353542"><time>2026-05-02T18:53:16Z</time></trkpt>
</trkseg>
</trk>
<trk>
<name>hfcep23</name>
<cmt>r</cmt>
<desc>Erpion Chemin n°23 </desc>
<link href="https://chemins.be/erpion/chemin/23"/><trkseg>
<trkpt lat="50.210479" lon="4.338762"><time>2026-05-02T18:43:16Z</time></trkpt>
<trkpt lat="50.207422" lon="4.340431"><time>2026-05-02T18:53:16Z</time></trkpt>
</trkseg></trk>
<trk>
<name>hfcep23</name>
<cmt>s</cmt>
<desc>Erpion Chemin n°23 </desc>
<link href="https://chemins.be/erpion/chemin/23"/><trkseg>
<trkpt lat="50.207422" lon="4.340431"><time>2026-05-02T18:53:16Z</time></trkpt>
<trkpt lat="50.206883" lon="4.341160"><time>2026-05-02T19:03:16Z</time></trkpt>
<trkpt lat="50.204744" lon="4.343332"><time>2026-05-02T19:13:16Z</time></trkpt>
<trkpt lat="50.201319" lon="4.345939"><time>2026-05-02T19:23:16Z</time></trkpt>
</trkseg>
</trk>
<trk>
<name>hfcep25</name>
<cmt>v</cmt>
<desc>Erpion Chemin n°25 </desc>
<link href="https://chemins.be/erpion/chemin/25"/><trkseg>
<trkpt lat="50.210392" lon="4.359356"><time>2026-05-02T18:43:16Z</time></trkpt>
<trkpt lat="50.210365" lon="4.361346"><time>2026-05-02T18:53:16Z</time></trkpt>
</trkseg>
</trk>
<trk>
<name>hfcep26</name>
<cmt>v</cmt>
<desc>Erpion Chemin n°26 </desc>
<link href="https://chemins.be/erpion/chemin/26"/><trkseg>
<trkpt lat="50.210500" lon="4.354733"><time>2026-05-02T18:43:16Z</time></trkpt>
<trkpt lat="50.210482" lon="4.356008"><time>2026-05-02T18:53:16Z</time></trkpt>
</trkseg>
</trk>
<trk>
<name>hfcep26bis</name>
<cmt>q</cmt>
<desc>Erpion Chemin n°26bis </desc>
<link href="https://chemins.be/erpion/chemin/26bis"/><trkseg>
<trkpt lat="50.204152" lon="4.365018"><time>2026-05-02T18:43:16Z</time></trkpt>
<trkpt lat="50.203873" lon="4.365862"><time>2026-05-02T18:53:16Z</time></trkpt>
</trkseg>
</trk>
<trk>
<name>hfcep26ter</name>
<cmt>q</cmt>
<desc>Erpion Chemin n°26ter </desc>
<link href="https://chemins.be/erpion/chemin/26ter"/><trkseg>
<trkpt lat="50.192781" lon="4.357544"><time>2026-05-02T18:43:16Z</time></trkpt>
<trkpt lat="50.193241" lon="4.356077"><time>2026-05-02T18:53:16Z</time></trkpt>
</trkseg>
</trk>
<trk>
<name>hfcep27</name>
<cmt>v</cmt>
<desc>Erpion Sentier n°27 </desc>
<link href="https://chemins.be/erpion/sentier/27"/><trkseg>
<trkpt lat="50.211985" lon="4.356065"><time>2026-05-02T18:43:16Z</time></trkpt>
<trkpt lat="50.212143" lon="4.355639"><time>2026-05-02T18:53:16Z</time></trkpt>
</trkseg></trk>
<trk>
<name>hfcep27</name>
<cmt>q</cmt>
<desc>Erpion Sentier n°27 </desc>
<link href="https://chemins.be/erpion/sentier/27"/><trkseg>
<trkpt lat="50.212143" lon="4.355639"><time>2026-05-02T18:53:16Z</time></trkpt>
<trkpt lat="50.212804" lon="4.355350"><time>2026-05-02T19:03:16Z</time></trkpt>
<trkpt lat="50.212811" lon="4.354967"><time>2026-05-02T19:13:16Z</time></trkpt>
<trkpt lat="50.214281" lon="4.354835"><time>2026-05-02T19:23:16Z</time></trkpt>
</trkseg></trk>
<trk>
<name>hfcep27</name>
<cmt>v</cmt>
<desc>Erpion Sentier n°27 </desc>
<link href="https://chemins.be/erpion/sentier/27"/><trkseg>
<trkpt lat="50.214281" lon="4.354835"><time>2026-05-02T19:23:16Z</time></trkpt>
<trkpt lat="50.214409" lon="4.354920"><time>2026-05-02T19:33:16Z</time></trkpt>
<trkpt lat="50.216498" lon="4.354749"><time>2026-05-02T19:43:16Z</time></trkpt>
</trkseg></trk>
<trk>
<name>hfcep27</name>
<cmt>q</cmt>
<desc>Erpion Sentier n°27 </desc>
<link href="https://chemins.be/erpion/sentier/27"/><trkseg>
<trkpt lat="50.216498" lon="4.354749"><time>2026-05-02T19:43:16Z</time></trkpt>
<trkpt lat="50.217267" lon="4.354820"><time>2026-05-02T19:53:16Z</time></trkpt>
</trkseg>
</trk>
<trk>
<name>hfcep28</name>
<cmt>q</cmt>
<desc>Erpion Sentier n°28 </desc>
<link href="https://chemins.be/erpion/sentier/28"/><trkseg>
<trkpt lat="50.213906" lon="4.356909"><time>2026-05-02T18:43:16Z</time></trkpt>
<trkpt lat="50.212807" lon="4.355357"><time>2026-05-02T18:53:16Z</time></trkpt>
<trkpt lat="50.212817" lon="4.355013"><time>2026-05-02T19:03:16Z</time></trkpt>
<trkpt lat="50.212697" lon="4.354774"><time>2026-05-02T19:13:16Z</time></trkpt>
<trkpt lat="50.212663" lon="4.353728"><time>2026-05-02T19:23:16Z</time></trkpt>
<trkpt lat="50.212583" lon="4.351287"><time>2026-05-02T19:33:16Z</time></trkpt>
<trkpt lat="50.212716" lon="4.350092"><time>2026-05-02T19:43:16Z</time></trkpt>
</trkseg>
</trk>
<trk>
<name>hfcep29</name>
<cmt>v</cmt>
<desc>Erpion Sentier n°29 </desc>
<link href="https://chemins.be/erpion/sentier/29"/><trkseg>
<trkpt lat="50.211731" lon="4.354537"><time>2026-05-02T18:43:16Z</time></trkpt>
<trkpt lat="50.212064" lon="4.354663"><time>2026-05-02T18:53:16Z</time></trkpt>
<trkpt lat="50.212720" lon="4.354775"><time>2026-05-02T19:03:16Z</time></trkpt>
</trkseg>
</trk>
<trk>
<name>hfcep30</name>
<cmt>v</cmt>
<desc>Erpion Sentier n°30 </desc>
<link href="https://chemins.be/erpion/sentier/30"/><trkseg>
<trkpt lat="50.212163" lon="4.355601"><time>2026-05-02T18:43:16Z</time></trkpt>
<trkpt lat="50.212055" lon="4.354677"><time>2026-05-02T18:53:16Z</time></trkpt>
</trkseg>
</trk>
<trk>
<name>hfcep31</name>
<cmt>r</cmt>
<desc>Erpion Sentier n°31 Rue du Général Galet</desc>
<link href="https://chemins.be/erpion/sentier/31"/><trkseg>
<trkpt lat="50.216362" lon="4.363503"><time>2026-05-02T18:43:16Z</time></trkpt>
<trkpt lat="50.216991" lon="4.364399"><time>2026-05-02T18:53:16Z</time></trkpt>
</trkseg>
</trk>
<trk>
<name>hfcep32</name>
<cmt>q</cmt>
<desc>Erpion Sentier n°32 </desc>
<link href="https://chemins.be/erpion/sentier/32"/><trkseg>
<trkpt lat="50.210374" lon="4.361374"><time>2026-05-02T18:43:16Z</time></trkpt>
<trkpt lat="50.210123" lon="4.361976"><time>2026-05-02T18:53:16Z</time></trkpt>
<trkpt lat="50.209269" lon="4.367916"><time>2026-05-02T19:03:16Z</time></trkpt>
<trkpt lat="50.209404" lon="4.368519"><time>2026-05-02T19:13:16Z</time></trkpt>
</trkseg>
</trk>
<trk>
<name>hfcep33</name>
<cmt>q</cmt>
<desc>Erpion Sentier n°33 </desc>
<link href="https://chemins.be/erpion/sentier/33"/><trkseg>
<trkpt lat="50.212280" lon="4.357437"><time>2026-05-02T18:43:16Z</time></trkpt>
<trkpt lat="50.210446" lon="4.359132"><time>2026-05-02T18:53:16Z</time></trkpt>
</trkseg>
</trk>
<trk>
<name>hfcep34</name>
<cmt>q</cmt>
<desc>Erpion Sentier n°34 </desc>
<link href="https://chemins.be/erpion/sentier/34"/><trkseg>
<trkpt lat="50.210976" lon="4.354817"><time>2026-05-02T18:43:16Z</time></trkpt>
<trkpt lat="50.210886" lon="4.355279"><time>2026-05-02T18:53:16Z</time></trkpt>
<trkpt lat="50.210949" lon="4.356330"><time>2026-05-02T19:03:16Z</time></trkpt>
<trkpt lat="50.211012" lon="4.357017"><time>2026-05-02T19:13:16Z</time></trkpt>
<trkpt lat="50.211354" lon="4.358109"><time>2026-05-02T19:23:16Z</time></trkpt>
<trkpt lat="50.211912" lon="4.358796"><time>2026-05-02T19:33:16Z</time></trkpt>
</trkseg>
</trk>
<trk>
<name>hfcep35</name>
<cmt>v</cmt>
<desc>Erpion Sentier n°35 </desc>
<link href="https://chemins.be/erpion/sentier/35"/><trkseg>
<trkpt lat="50.211426" lon="4.356064"><time>2026-05-02T18:43:16Z</time></trkpt>
<trkpt lat="50.211012" lon="4.356204"><time>2026-05-02T18:53:16Z</time></trkpt>
</trkseg></trk>
<trk>
<name>hfcep35</name>
<cmt>q</cmt>
<desc>Erpion Sentier n°35 </desc>
<link href="https://chemins.be/erpion/sentier/35"/><trkseg>
<trkpt lat="50.211012" lon="4.356204"><time>2026-05-02T18:53:16Z</time></trkpt>
<trkpt lat="50.210644" lon="4.357633"><time>2026-05-02T19:03:16Z</time></trkpt>
<trkpt lat="50.210374" lon="4.359244"><time>2026-05-02T19:13:16Z</time></trkpt>
</trkseg>
</trk>
<trk>
<name>hfcep37</name>
<cmt>q</cmt>
<desc>Erpion Sentier n°37 </desc>
<link href="https://chemins.be/erpion/sentier/37"/><trkseg>
<trkpt lat="50.210661" lon="4.354859"><time>2026-05-02T18:43:16Z</time></trkpt>
<trkpt lat="50.210706" lon="4.355504"><time>2026-05-02T18:53:16Z</time></trkpt>
<trkpt lat="50.210518" lon="4.355966"><time>2026-05-02T19:03:16Z</time></trkpt>
<trkpt lat="50.209259" lon="4.356134"><time>2026-05-02T19:13:16Z</time></trkpt>
<trkpt lat="50.208000" lon="4.354748"><time>2026-05-02T19:23:16Z</time></trkpt>
<trkpt lat="50.206700" lon="4.353418"><time>2026-05-02T19:33:16Z</time></trkpt>
</trkseg></trk>
<trk>
<name>hfcep37</name>
<cmt>r</cmt>
<desc>Erpion Sentier n°37 </desc>
<link href="https://chemins.be/erpion/sentier/37"/><trkseg>
<trkpt lat="50.206700" lon="4.353418"><time>2026-05-02T19:33:16Z</time></trkpt>
<trkpt lat="50.204182" lon="4.353919"><time>2026-05-02T19:43:16Z</time></trkpt>
<trkpt lat="50.203806" lon="4.354334"><time>2026-05-02T19:53:16Z</time></trkpt>
</trkseg></trk>
<trk>
<name>hfcep37</name>
<cmt>q</cmt>
<desc>Erpion Sentier n°37 </desc>
<link href="https://chemins.be/erpion/sentier/37"/><trkseg>
<trkpt lat="50.203806" lon="4.354334"><time>2026-05-02T19:53:16Z</time></trkpt>
<trkpt lat="50.201298" lon="4.354935"><time>2026-05-02T20:03:16Z</time></trkpt>
<trkpt lat="50.196188" lon="4.352589"><time>2026-05-02T20:13:16Z</time></trkpt>
</trkseg>
</trk>
<trk>
<name>hfcep38</name>
<cmt>q</cmt>
<desc>Erpion Sentier n°38 </desc>
<link href="https://chemins.be/erpion/sentier/38"/><trkseg>
<trkpt lat="50.206669" lon="4.349719"><time>2026-05-02T18:43:16Z</time></trkpt>
<trkpt lat="50.207973" lon="4.350531"><time>2026-05-02T18:53:16Z</time></trkpt>
<trkpt lat="50.208800" lon="4.352338"><time>2026-05-02T19:03:16Z</time></trkpt>
<trkpt lat="50.209564" lon="4.353304"><time>2026-05-02T19:13:16Z</time></trkpt>
<trkpt lat="50.210095" lon="4.353416"><time>2026-05-02T19:23:16Z</time></trkpt>
<trkpt lat="50.210356" lon="4.353977"><time>2026-05-02T19:33:16Z</time></trkpt>
<trkpt lat="50.210482" lon="4.354453"><time>2026-05-02T19:43:16Z</time></trkpt>
</trkseg>
</trk>
<trk>
<name>hfcep39</name>
<cmt>q</cmt>
<desc>Erpion Sentier n°39 </desc>
<link href="https://chemins.be/erpion/sentier/39"/><trkseg>
<trkpt lat="50.210796" lon="4.353542"><time>2026-05-02T18:43:16Z</time></trkpt>
<trkpt lat="50.210455" lon="4.353500"><time>2026-05-02T18:53:16Z</time></trkpt>
<trkpt lat="50.210052" lon="4.353415"><time>2026-05-02T19:03:16Z</time></trkpt>
<trkpt lat="50.209512" lon="4.353257"><time>2026-05-02T19:13:16Z</time></trkpt>
<trkpt lat="50.208504" lon="4.353238"><time>2026-05-02T19:23:16Z</time></trkpt>
<trkpt lat="50.207891" lon="4.353529"><time>2026-05-02T19:33:16Z</time></trkpt>
</trkseg>
</trk>
<trk>
<name>hfcep4</name>
<cmt>r</cmt>
<desc>Erpion Chemin n°4 </desc>
<link href="https://chemins.be/erpion/chemin/4"/><trkseg>
<trkpt lat="50.200718" lon="4.356879"><time>2026-05-02T18:43:16Z</time></trkpt>
<trkpt lat="50.199154" lon="4.355451"><time>2026-05-02T18:53:16Z</time></trkpt>
<trkpt lat="50.197382" lon="4.352482"><time>2026-05-02T19:03:16Z</time></trkpt>
</trkseg></trk>
<trk>
<name>hfcep4</name>
<cmt>v</cmt>
<desc>Erpion Chemin n°4 </desc>
<link href="https://chemins.be/erpion/chemin/4"/><trkseg>
<trkpt lat="50.197382" lon="4.352482"><time>2026-05-02T19:03:16Z</time></trkpt>
<trkpt lat="50.196456" lon="4.352678"><time>2026-05-02T19:13:16Z</time></trkpt>
<trkpt lat="50.194694" lon="4.351909"><time>2026-05-02T19:23:16Z</time></trkpt>
<trkpt lat="50.193795" lon="4.349934"><time>2026-05-02T19:33:16Z</time></trkpt>
<trkpt lat="50.192787" lon="4.349080"><time>2026-05-02T19:43:16Z</time></trkpt>
<trkpt lat="50.192482" lon="4.348674"><time>2026-05-02T19:53:16Z</time></trkpt>
</trkseg>
</trk>
<trk>
<name>hfcep40</name>
<cmt>q</cmt>
<desc>Erpion Sentier n°40 </desc>
<link href="https://chemins.be/erpion/sentier/40"/><trkseg>
<trkpt lat="50.210482" lon="4.354397"><time>2026-05-02T18:43:16Z</time></trkpt>
<trkpt lat="50.210464" lon="4.353500"><time>2026-05-02T18:53:16Z</time></trkpt>
<trkpt lat="50.210805" lon="4.353542"><time>2026-05-02T19:03:16Z</time></trkpt>
<trkpt lat="50.210814" lon="4.353262"><time>2026-05-02T19:13:16Z</time></trkpt>
<trkpt lat="50.210895" lon="4.352856"><time>2026-05-02T19:23:16Z</time></trkpt>
<trkpt lat="50.211003" lon="4.352547"><time>2026-05-02T19:33:16Z</time></trkpt>
<trkpt lat="50.210985" lon="4.351595"><time>2026-05-02T19:43:16Z</time></trkpt>
<trkpt lat="50.211506" lon="4.350390"><time>2026-05-02T19:53:16Z</time></trkpt>
<trkpt lat="50.211595" lon="4.348651"><time>2026-05-02T20:03:16Z</time></trkpt>
<trkpt lat="50.210277" lon="4.344202"><time>2026-05-02T20:13:16Z</time></trkpt>
<trkpt lat="50.208950" lon="4.341327"><time>2026-05-02T20:23:16Z</time></trkpt>
<trkpt lat="50.208885" lon="4.339696"><time>2026-05-02T20:33:16Z</time></trkpt>
<trkpt lat="50.208208" lon="4.338824"><time>2026-05-02T20:43:16Z</time></trkpt>
<trkpt lat="50.206313" lon="4.331056"><time>2026-05-02T20:53:16Z</time></trkpt>
<trkpt lat="50.205489" lon="4.329640"><time>2026-05-02T21:03:16Z</time></trkpt>
</trkseg>
</trk>
<trk>
<name>hfcep41</name>
<cmt>v</cmt>
<desc>Erpion Sentier n°41 </desc>
<link href="https://chemins.be/erpion/sentier/41"/><trkseg>
<trkpt lat="50.211677" lon="4.353248"><time>2026-05-02T18:43:16Z</time></trkpt>
<trkpt lat="50.211273" lon="4.353080"><time>2026-05-02T18:53:16Z</time></trkpt>
<trkpt lat="50.210886" lon="4.352842"><time>2026-05-02T19:03:16Z</time></trkpt>
</trkseg>
</trk>
<trk>
<name>hfcep42</name>
<cmt>q</cmt>
<desc>Erpion Sentier n°42 </desc>
<link href="https://chemins.be/erpion/sentier/42"/><trkseg>
<trkpt lat="50.211794" lon="4.352337"><time>2026-05-02T18:43:16Z</time></trkpt>
<trkpt lat="50.211407" lon="4.352085"><time>2026-05-02T18:53:16Z</time></trkpt>
<trkpt lat="50.211156" lon="4.352631"><time>2026-05-02T19:03:16Z</time></trkpt>
<trkpt lat="50.211021" lon="4.352561"><time>2026-05-02T19:13:16Z</time></trkpt>
</trkseg>
</trk>
<trk>
<name>hfcep43</name>
<cmt>q</cmt>
<desc>Erpion Sentier n°43 </desc>
<link href="https://chemins.be/erpion/sentier/43"/><trkseg>
<trkpt lat="50.200405" lon="4.364430"><time>2026-05-02T18:43:16Z</time></trkpt>
<trkpt lat="50.195002" lon="4.359051"><time>2026-05-02T18:53:16Z</time></trkpt>
<trkpt lat="50.194370" lon="4.357821"><time>2026-05-02T19:03:16Z</time></trkpt>
</trkseg></trk>
<trk>
<name>hfcep43</name>
<cmt>v</cmt>
<desc>Erpion Sentier n°43 </desc>
<link href="https://chemins.be/erpion/sentier/43"/><trkseg>
<trkpt lat="50.194370" lon="4.357821"><time>2026-05-02T19:03:16Z</time></trkpt>
<trkpt lat="50.192685" lon="4.357535"><time>2026-05-02T19:13:16Z</time></trkpt>
</trkseg></trk>
<trk>
<name>hfcep43</name>
<cmt>q</cmt>
<desc>Erpion Sentier n°43 </desc>
<link href="https://chemins.be/erpion/sentier/43"/><trkseg>
<trkpt lat="50.192685" lon="4.357535"><time>2026-05-02T19:13:16Z</time></trkpt>
<trkpt lat="50.191662" lon="4.355659"><time>2026-05-02T19:23:16Z</time></trkpt>
<trkpt lat="50.188610" lon="4.352742"><time>2026-05-02T19:33:16Z</time></trkpt>
</trkseg></trk>
<trk>
<name>hfcep43</name>
<cmt>s</cmt>
<desc>Erpion Sentier n°43 </desc>
<link href="https://chemins.be/erpion/sentier/43"/><trkseg>
<trkpt lat="50.188610" lon="4.352742"><time>2026-05-02T19:33:16Z</time></trkpt>
<trkpt lat="50.187925" lon="4.352088"><time>2026-05-02T19:43:16Z</time></trkpt>
</trkseg>
</trk>
<trk>
<name>hfcep44</name>
<cmt>q</cmt>
<desc>Erpion Sentier n°44 </desc>
<link href="https://chemins.be/erpion/sentier/44"/><trkseg>
<trkpt lat="50.213731" lon="4.348037"><time>2026-05-02T18:43:16Z</time></trkpt>
<trkpt lat="50.213690" lon="4.347286"><time>2026-05-02T18:53:16Z</time></trkpt>
<trkpt lat="50.214390" lon="4.344068"><time>2026-05-02T19:03:16Z</time></trkpt>
<trkpt lat="50.214487" lon="4.338896"><time>2026-05-02T19:13:16Z</time></trkpt>
</trkseg>
</trk>
<trk>
<name>hfcep45</name>
<cmt>s</cmt>
<desc>Erpion Chemin n°45 </desc>
<link href="https://chemins.be/erpion/chemin/45"/><trkseg>
<trkpt lat="50.169071" lon="4.357363"><time>2026-05-02T18:43:16Z</time></trkpt>
<trkpt lat="50.170408" lon="4.359809"><time>2026-05-02T18:53:16Z</time></trkpt>
</trkseg></trk>
<trk>
<name>hfcep45</name>
<cmt>v</cmt>
<desc>Erpion Chemin n°45 </desc>
<link href="https://chemins.be/erpion/chemin/45"/><trkseg>
<trkpt lat="50.170408" lon="4.359809"><time>2026-05-02T18:53:16Z</time></trkpt>
<trkpt lat="50.171292" lon="4.362675"><time>2026-05-02T19:03:16Z</time></trkpt>
</trkseg>
</trk>
<trk>
<name>hfcep46</name>
<cmt>q</cmt>
<desc>Erpion Sentier n°46 </desc>
<link href="https://chemins.be/erpion/sentier/46"/><trkseg>
<trkpt lat="50.192300" lon="4.348500"><time>2026-05-02T18:43:16Z</time></trkpt>
<trkpt lat="50.191827" lon="4.348929"><time>2026-05-02T18:53:16Z</time></trkpt>
<trkpt lat="50.189365" lon="4.349290"><time>2026-05-02T19:03:16Z</time></trkpt>
<trkpt lat="50.188057" lon="4.350320"><time>2026-05-02T19:13:16Z</time></trkpt>
</trkseg></trk>
<trk>
<name>hfcep46</name>
<cmt>s</cmt>
<desc>Erpion Sentier n°46 </desc>
<link href="https://chemins.be/erpion/sentier/46"/><trkseg>
<trkpt lat="50.188057" lon="4.350320"><time>2026-05-02T19:13:16Z</time></trkpt>
<trkpt lat="50.185595" lon="4.352260"><time>2026-05-02T19:23:16Z</time></trkpt>
<trkpt lat="50.182067" lon="4.354886"><time>2026-05-02T19:33:16Z</time></trkpt>
<trkpt lat="50.181154" lon="4.354378"><time>2026-05-02T19:43:16Z</time></trkpt>
</trkseg></trk>
<trk>
<name>hfcep46</name>
<cmt>q</cmt>
<desc>Erpion Sentier n°46 </desc>
<link href="https://chemins.be/erpion/sentier/46"/><trkseg>
<trkpt lat="50.181154" lon="4.354378"><time>2026-05-02T19:43:16Z</time></trkpt>
<trkpt lat="50.181133" lon="4.354366"><time>2026-05-02T19:53:16Z</time></trkpt>
<trkpt lat="50.179329" lon="4.353363"><time>2026-05-02T20:03:16Z</time></trkpt>
<trkpt lat="50.178719" lon="4.353217"><time>2026-05-02T20:13:16Z</time></trkpt>
<trkpt lat="50.177812" lon="4.353654"><time>2026-05-02T20:23:16Z</time></trkpt>
<trkpt lat="50.175036" lon="4.352830"><time>2026-05-02T20:33:16Z</time></trkpt>
<trkpt lat="50.174255" lon="4.353191"><time>2026-05-02T20:43:16Z</time></trkpt>
<trkpt lat="50.172974" lon="4.355234"><time>2026-05-02T20:53:16Z</time></trkpt>
<trkpt lat="50.172353" lon="4.355654"><time>2026-05-02T21:03:16Z</time></trkpt>
<trkpt lat="50.170165" lon="4.359336"><time>2026-05-02T21:13:16Z</time></trkpt>
</trkseg></trk>
<trk>
<name>hfcep46</name>
<cmt>s</cmt>
<desc>Erpion Sentier n°46 </desc>
<link href="https://chemins.be/erpion/sentier/46"/><trkseg>
<trkpt lat="50.170165" lon="4.359336"><time>2026-05-02T21:13:16Z</time></trkpt>
</trkseg>
</trk>
<trk>
<name>hfcep5</name>
<cmt>v</cmt>
<desc>Erpion Chemin n°5 </desc>
<link href="https://chemins.be/erpion/chemin/5"/><trkseg>
<trkpt lat="50.201031" lon="4.346079"><time>2026-05-02T18:43:16Z</time></trkpt>
<trkpt lat="50.200177" lon="4.346948"><time>2026-05-02T18:53:16Z</time></trkpt>
</trkseg></trk>
<trk>
<name>hfcep5</name>
<cmt>s</cmt>
<desc>Erpion Chemin n°5 </desc>
<link href="https://chemins.be/erpion/chemin/5"/><trkseg>
<trkpt lat="50.200177" lon="4.346948"><time>2026-05-02T18:53:16Z</time></trkpt>
<trkpt lat="50.199323" lon="4.344834"><time>2026-05-02T19:03:16Z</time></trkpt>
</trkseg>
</trk>
<trk>
<name>hfcep6</name>
<cmt>r</cmt>
<desc>Erpion Chemin n°6 </desc>
<link href="https://chemins.be/erpion/chemin/6"/><trkseg>
<trkpt lat="50.207209" lon="4.353347"><time>2026-05-02T18:43:16Z</time></trkpt>
<trkpt lat="50.204188" lon="4.353912"><time>2026-05-02T18:53:16Z</time></trkpt>
<trkpt lat="50.202336" lon="4.355842"><time>2026-05-02T19:03:16Z</time></trkpt>
<trkpt lat="50.200871" lon="4.357075"><time>2026-05-02T19:13:16Z</time></trkpt>
<trkpt lat="50.198147" lon="4.358546"><time>2026-05-02T19:23:16Z</time></trkpt>
</trkseg></trk>
<trk>
<name>hfcep6</name>
<cmt>v</cmt>
<desc>Erpion Chemin n°6 </desc>
<link href="https://chemins.be/erpion/chemin/6"/><trkseg>
<trkpt lat="50.198147" lon="4.358546"><time>2026-05-02T19:23:16Z</time></trkpt>
<trkpt lat="50.196879" lon="4.358645"><time>2026-05-02T19:33:16Z</time></trkpt>
<trkpt lat="50.195432" lon="4.358183"><time>2026-05-02T19:43:16Z</time></trkpt>
</trkseg></trk>
<trk>
<name>hfcep6</name>
<cmt>q</cmt>
<desc>Erpion Chemin n°6 </desc>
<link href="https://chemins.be/erpion/chemin/6"/><trkseg>
<trkpt lat="50.195432" lon="4.358183"><time>2026-05-02T19:43:16Z</time></trkpt>
<trkpt lat="50.194937" lon="4.359051"><time>2026-05-02T19:53:16Z</time></trkpt>
<trkpt lat="50.194452" lon="4.359331"><time>2026-05-02T20:03:16Z</time></trkpt>
</trkseg>
</trk>
<trk>
<name>hfcep7</name>
<cmt>r</cmt>
<desc>Erpion Chemin n°7 Rue du Logis Goutte</desc>
<link href="https://chemins.be/erpion/chemin/7"/><trkseg>
<trkpt lat="50.212487" lon="4.358782"><time>2026-05-02T18:43:16Z</time></trkpt>
<trkpt lat="50.212793" lon="4.359790"><time>2026-05-02T18:53:16Z</time></trkpt>
</trkseg></trk>
<trk>
<name>hfcep7</name>
<cmt>v</cmt>
<desc>Erpion Chemin n°7 Rue du Logis Goutte</desc>
<link href="https://chemins.be/erpion/chemin/7"/><trkseg>
<trkpt lat="50.212793" lon="4.359790"><time>2026-05-02T18:53:16Z</time></trkpt>
<trkpt lat="50.212793" lon="4.361962"><time>2026-05-02T19:03:16Z</time></trkpt>
<trkpt lat="50.213054" lon="4.364414"><time>2026-05-02T19:13:16Z</time></trkpt>
</trkseg></trk>
<trk>
<name>hfcep7</name>
<cmt>d</cmt>
<desc>Erpion Chemin n°7 Rue du Logis Goutte</desc>
<link href="https://chemins.be/erpion/chemin/7"/><trkseg>
<trkpt lat="50.213054" lon="4.364414"><time>2026-05-02T19:13:16Z</time></trkpt>
<trkpt lat="50.212991" lon="4.365310"><time>2026-05-02T19:23:16Z</time></trkpt>
<trkpt lat="50.212559" lon="4.365913"><time>2026-05-02T19:33:16Z</time></trkpt>
<trkpt lat="50.211148" lon="4.366585"><time>2026-05-02T19:43:16Z</time></trkpt>
<trkpt lat="50.210348" lon="4.367314"><time>2026-05-02T19:53:16Z</time></trkpt>
<trkpt lat="50.209422" lon="4.368575"><time>2026-05-02T20:03:16Z</time></trkpt>
</trkseg>
</trk>
<trk>
<name>hfcep8</name>
<cmt>v</cmt>
<desc>Erpion Chemin n°8 </desc>
<link href="https://chemins.be/erpion/chemin/8"/><trkseg>
<trkpt lat="50.204657" lon="4.364876"><time>2026-05-02T18:43:16Z</time></trkpt>
<trkpt lat="50.202925" lon="4.365540"><time>2026-05-02T18:53:16Z</time></trkpt>
</trkseg></trk>
<trk>
<name>hfcep8</name>
<cmt>q</cmt>
<desc>Erpion Chemin n°8 </desc>
<link href="https://chemins.be/erpion/chemin/8"/><trkseg>
<trkpt lat="50.202925" lon="4.365540"><time>2026-05-02T18:53:16Z</time></trkpt>
<trkpt lat="50.200380" lon="4.364417"><time>2026-05-02T19:03:16Z</time></trkpt>
</trkseg>
</trk>
<trk>
<name>hfcep9</name>
<cmt>v</cmt>
<desc>Erpion Chemin n°9 </desc>
<link href="https://chemins.be/erpion/chemin/9"/><trkseg>
<trkpt lat="50.201661" lon="4.356626"><time>2026-05-02T18:43:16Z</time></trkpt>
<trkpt lat="50.202376" lon="4.357942"><time>2026-05-02T18:53:16Z</time></trkpt>
<trkpt lat="50.202696" lon="4.359616"><time>2026-05-02T19:03:16Z</time></trkpt>
<trkpt lat="50.203667" lon="4.361876"><time>2026-05-02T19:13:16Z</time></trkpt>
<trkpt lat="50.205843" lon="4.364120"><time>2026-05-02T19:23:16Z</time></trkpt>
<trkpt lat="50.206643" lon="4.365269"><time>2026-05-02T19:33:16Z</time></trkpt>
<trkpt lat="50.207821" lon="4.368799"><time>2026-05-02T19:43:16Z</time></trkpt>
<trkpt lat="50.208549" lon="4.367818"><time>2026-05-02T19:53:16Z</time></trkpt>
<trkpt lat="50.209008" lon="4.368337"><time>2026-05-02T20:03:16Z</time></trkpt>
<trkpt lat="50.209466" lon="4.368743"><time>2026-05-02T20:13:16Z</time></trkpt>
</trkseg>
</trk>
<trk>
<name>hfcepi1</name>
<cmt>v</cmt>
<desc>Erpion Sentier n°i1 </desc>
<link href="https://chemins.be/erpion/sentier/i1"/><trkseg>
<trkpt lat="50.202835" lon="4.365594"><time>2026-05-02T18:43:16Z</time></trkpt>
<trkpt lat="50.201997" lon="4.365980"><time>2026-05-02T18:53:16Z</time></trkpt>
<trkpt lat="50.201882" lon="4.367360"><time>2026-05-02T19:03:16Z</time></trkpt>
<trkpt lat="50.201992" lon="4.367833"><time>2026-05-02T19:13:16Z</time></trkpt>
</trkseg>
</trk>
</gpx>